KI5QWQ Weather Reports


time (UTC)temp
F
wind
direction
speed
knots
gust
knots
rain 1hr
in
rain 24hr
in
rain mn
in
humidity
%
barometer
mb
20260831115839 0 199 0.0 0.9 0.00 0.00 0.00 1019.4
20260831115336 0 199 0.0 0.9 0.00 0.00 0.00 1019.6
20260831114835 0 199 0.0 0.9 0.00 0.00 0.00 1019.2
20260831114333 0 199 0.0 0.9 0.00 0.00 0.00 1019.2
20260831113830 0 199 0.0 0.9 0.00 0.00 0.00 1019.3
20260831113330 0 217 0.0 0.9 0.00 0.00 0.00 1019.3
20260831112824 0 217 0.0 0.9 0.00 0.00 0.00 1019.1
20260831112319 0 240 0.9 1.7 0.00 0.00 0.00 1019.3
20260831111815 0 240 0.9 1.7 0.00 0.00 0.00 1019.1
20260831111310 0 240 0.9 1.7 0.00 0.00 0.00 1019.0
20260831110807 0 240 0.9 1.7 0.00 0.00 0.00 1019.0
20260831110301 0 240 0.9 1.7 0.00 0.00 0.00 1018.9
20260831105800 0 216 1.7 1.7 0.00 0.00 0.00 1019.0
20260831105256 0 216 1.7 1.7 0.00 0.00 0.00 1019.0
20260831104755 0 216 1.7 1.7 0.00 0.00 0.00 1019.0
20260831104252 0 218 0.9 2.6 0.00 0.00 0.00 1018.9
20260831103752 0 237 0.0 1.7 0.00 0.00 0.00 1018.9
20260831103248 0 246 0.0 0.9 0.00 0.00 0.00 1018.9
20260831102742 0 253 0.0 1.7 0.00 0.00 0.00 1018.9
20260831102237 0 191 0.0 0.9 0.00 0.00 0.00 1019.0
20260831101732 0 191 0.0 0.9 0.00 0.00 0.00 1019.1
20260831101228 0 191 0.0 0.9 0.00 0.00 0.00 1019.0
20260831100724 0 213 1.7 2.6 0.00 0.00 0.00 1018.9
20260831100220 0 213 1.7 2.6 0.00 0.00 0.00 1019.1
20260831095718 0 224 0.0 0.9 0.00 0.00 0.00 1019.1
20260831095213 0 206 0.0 0.9 0.00 0.00 0.00 1019.1
20260831094708 0 206 0.0 0.9 0.00 0.00 0.00 1018.9
20260831094204 0 230 0.0 1.7 0.00 0.00 0.00 1019.0
20260831093700 0 222 0.9 1.7 0.00 0.00 0.00 1018.8
20260831093155 0 183 0.0 1.7 0.00 0.00 0.00 1018.9
20260831092651 0 242 0.0 0.9 0.00 0.00 0.00 1018.9
20260831092147 0 228 0.0 1.7 0.00 0.00 0.00 1019.0
20260831091646 0 247 0.0 1.7 0.00 0.00 0.00 1018.9
20260831091142 0 227 0.9 1.7 0.00 0.00 0.00 1018.8
20260831090637 0 202 0.0 1.7 0.00 0.00 0.00 1018.9
20260831090133 0 237 0.0 0.9 0.00 0.00 0.00 1018.9
20260831085628 0 223 0.0 1.7 0.00 0.00 0.00 1018.9
20260831085124 0 206 0.0 0.9 0.00 0.00 0.00 1019.0
20260831084619 0 218 0.9 1.7 0.00 0.00 0.00 1018.8
20260831084115 0 217 0.0 0.9 0.00 0.00 0.00 1019.0
20260831083611 0 207 0.9 1.7 0.00 0.00 0.00 1019.1
20260831083106 0 218 0.0 1.7 0.00 0.00 0.00 1019.0
20260831082605 0 205 0.0 0.9 0.00 0.00 0.00 1019.0
20260831082100 0 236 0.0 1.7 0.00 0.00 0.00 1018.9
20260831081556 0 219 0.0 3.5 0.00 0.00 0.00 1018.9
20260831081051 0 213 0.9 1.7 0.00 0.00 0.00 1019.1
20260831080546 0 199 0.9 4.3 0.00 0.00 0.00 1018.8
20260831080042 0 196 0.0 1.7 0.00 0.00 0.00 1018.7
20260831075542 0 140 1.7 6.1 0.00 0.00 0.00 1018.8
20260831075037 0 213 0.0 1.7 0.00 0.00 0.00 1018.8
20260831074532 0 219 1.7 3.5 0.00 0.00 0.00 1018.9
20260831074032 0 200 1.7 4.3 0.00 0.00 0.00 1018.8
20260831073526 0 207 1.7 6.1 0.00 0.00 0.00 1018.7
20260831073026 0 222 0.9 2.6 0.00 0.00 0.00 1019.0
20260831072521 0 230 0.0 1.7 0.00 0.00 0.00 1018.8
20260831072018 0 254 0.0 1.7 0.00 0.00 0.00 1018.9
20260831071516 0 228 0.9 2.6 0.00 0.00 0.00 1018.9
20260831071012 0 193 1.7 2.6 0.00 0.00 0.00 1018.8
20260831070510 0 217 1.7 1.7 0.00 0.00 0.00 1018.9
20260831070005 0 229 0.0 3.5 0.00 0.00 0.00 1019.0
20260831065503 0 205 1.7 5.2 0.00 0.00 0.00 1019.0
20260831064958 0 252 1.7 1.7 0.00 0.00 0.00 1018.9
20260831064453 0 229 0.0 0.9 0.00 0.00 0.00 1019.1
20260831063948 0 136 0.0 1.7 0.00 0.00 0.00 1019.0
20260831063443 0 202 0.9 2.6 0.00 0.00 0.00 1019.0
20260831062937 0 229 0.0 2.6 0.00 0.00 0.00 1019.1
20260831062433 0 200 1.7 2.6 0.00 0.00 0.00 1019.0
20260831061932 0 180 1.7 1.7 0.00 0.00 0.00 1018.8
20260831061431 0 205 0.0 1.7 0.00 0.00 0.00 1019.1
20260831060927 0 209 0.0 1.7 0.00 0.00 0.00 1019.0
20260831060422 0 226 0.9 1.7 0.00 0.00 0.00 1019.0
20260831055921 0 216 0.9 3.5 0.00 0.00 0.00 1018.8
20260831055416 0 227 0.0 1.7 0.00 0.00 0.00 1018.7
20260831054912 0 217 0.0 0.9 0.00 0.00 0.00 1018.7
20260831054407 0 211 0.0 3.5 0.00 0.00 0.00 1018.8
20260831053906 0 165 0.0 1.7 0.00 0.00 0.00 1018.8
20260831053404 0 195 0.0 0.9 0.00 0.00 0.00 1018.7
20260831052859 0 136 4.3 4.3 0.00 0.00 0.00 1018.5
20260831052358 0 244 0.9 1.7 0.00 0.00 0.00 1018.7
20260831051857 0 212 0.0 1.7 0.00 0.00 0.00 1018.5
20260831051355 0 116 0.9 1.7 0.00 0.00 0.00 1018.4
20260831050850 0 175 1.7 2.6 0.00 0.00 0.00 1018.5
20260831050350 0 217 0.0 1.7 0.00 0.00 0.00 1018.6
20260831045844 0 207 0.0 3.5 0.00 0.00 0.00 1018.3
20260831045343 0 240 0.0 1.7 0.00 0.00 0.00 1018.5
20260831044838 0 207 0.9 1.7 0.00 0.00 0.00 1018.4
20260831044333 0 192 0.9 1.7 0.00 0.00 0.00 1018.3
20260831043830 0 355 0.9 1.7 0.00 0.00 0.00 1018.3
20260831043329 0 226 0.0 3.5 0.00 0.00 0.00 1018.2
20260831042824 0 225 1.7 4.3 0.00 0.00 0.00 1018.4
20260831042323 0 215 1.7 3.5 0.00 0.00 0.00 1018.2
20260831041819 0 232 0.9 1.7 0.00 0.00 0.00 1018.3
20260831041318 0 217 2.6 2.6 0.00 0.00 0.00 1018.3
20260831040813 0 184 2.6 4.3 0.00 0.00 0.00 1018.2
20260831040312 0 137 4.3 6.1 0.00 0.00 0.00 1018.1
20260831035811 0 198 2.6 4.3 0.00 0.00 0.00 1018.1
20260831035310 0 159 2.6 2.6 0.00 0.00 0.00 1018.0
20260831034804 0 191 0.9 3.5 0.00 0.00 0.00 1018.2
20260831034259 0 214 2.6 3.5 0.00 0.00 0.00 1018.0
20260831033755 0 106 2.6 2.6 0.00 0.00 0.00 1017.9
20260831033249 0 204 1.7 6.1 0.00 0.00 0.00 1017.6
20260831032744 0 139 2.6 5.2 0.00 0.00 0.00 1017.5
20260831032239 0 204 2.6 7.8 0.00 0.00 0.00 1017.6
20260831031734 0 238 0.9 4.3 0.00 0.00 0.00 1017.3
20260831031229 0 202 2.6 6.1 0.00 0.00 0.00 1017.3
20260831030728 0 193 0.0 0.0 0.00 0.00 0.00 1017.4
20260831030227 0 111 1.7 3.5 0.00 0.00 0.00 1017.4
20260831025726 0 0.0 0.0 0.00 0.00 0.00 1017.2
20260831025221 0 0.0 0.0 0.00 0.00 0.00 1017.2
20260831024717 0 0.0 0.0 0.00 0.00 0.00 1017.1
20260831024215 0 0.0 0.0 0.00 0.00 0.00 1016.8
20260831023714 0 0.0 0.0 0.00 0.00 0.00 1017.1
20260831023214 0 0.0 0.0 0.00 0.00 0.00 1017.0
20260831022709 0 0.0 0.0 0.00 0.00 0.00 1016.8
20260831022203 0 0.0 0.0 0.00 0.00 0.00 1016.6
20260831021703 0 0.0 0.0 0.00 0.00 0.00 1016.4
20260831021158 0 0.0 0.0 0.00 0.00 0.00 1016.2
20260831020654 0 0.0 0.0 0.00 0.00 0.00 1016.2
20260831020153 0 0.0 0.0 0.00 0.00 0.00 1016.2
20260831015649 0 0.0 0.0 0.00 0.00 0.00 1016.1
20260831015149 0 0.0 0.0 0.00 0.00 0.00 1016.1
20260831014644 0 0.0 0.0 0.00 0.00 0.00 1016.0
20260831014139 0 0.0 0.0 0.00 0.00 0.00 1016.1
20260831013636 0 0.0 0.0 0.00 0.00 0.00 1015.8
20260831013135 0 0.0 0.0 0.00 0.00 0.00 1015.7
20260831012630 0 0.0 0.0 0.00 0.00 0.00 1015.7
20260831012125 0 0.0 0.0 0.00 0.00 0.00 1015.8
20260831011624 0 0.0 0.0 0.00 0.00 0.00 1015.5
20260831011120 0 0.0 0.0 0.00 0.00 0.00 1015.6
20260831010616 0 0.0 0.0 0.00 0.00 0.00 1015.6
20260831010112 0 0.0 0.0 0.00 0.00 0.00 1015.6
20260831005611 0 0.0 0.0 0.00 0.00 0.00 1015.7
20260831005106 0 0.0 0.0 0.00 0.00 0.00 1015.5
20260831004602 0 0.0 0.0 0.00 0.00 0.00 1015.7
20260831004057 0 0.0 0.0 0.00 0.00 0.00 1015.6
20260831003554 0 178 1.7 2.6 0.00 0.00 0.00 1015.5
20260831003049 0 178 1.7 2.6 0.00 0.00 0.00 1015.7
20260831002548 0 178 1.7 2.6 0.00 0.00 0.00 1015.7
20260831002043 0 178 1.7 2.6 0.00 0.00 0.00 1015.5
20260831001538 0 178 1.7 2.6 0.00 0.00 0.00 1015.6
20260831001035 0 178 1.7 2.6 0.00 0.00 0.00 1015.7
20260831000531 0 178 1.7 2.6 0.00 0.00 0.00 1015.5
20260831000030 0 178 1.7 2.6 0.00 0.00 0.00 1015.6
20260830235524 0 178 1.7 2.6 0.00 0.00 0.00 1015.6
20260830235019 0 178 1.7 2.6 0.00 0.00 0.00 1015.6
20260830234514 0 178 1.7 2.6 0.00 0.00 0.00 1015.7
20260830234009 0 178 1.7 2.6 0.00 0.00 0.00 1015.6
20260830233505 0 232 1.7 2.6 0.00 0.00 0.00 1015.6
20260830233001 0 232 1.7 2.6 0.00 0.00 0.00 1015.6
20260830232456 0 232 1.7 2.6 0.00 0.00 0.00 1015.6
20260830231952 0 232 1.7 2.6 0.00 0.00 0.00 1015.7
20260830231448 0 232 1.7 2.6 0.00 0.00 0.00 1015.6
20260830230947 0 132 2.6 2.6 0.00 0.00 0.00 1015.5
20260830230442 0 167 1.7 2.6 0.00 0.00 0.00 1015.7
20260830225941 0 122 2.6 4.3 0.00 0.00 0.00 1015.4
20260830225438 0 154 1.7 5.2 0.00 0.00 0.00 1015.6
20260830224937 0 196 2.6 2.6 0.00 0.00 0.00 1015.5
20260830224436 0 198 0.9 1.7 0.00 0.00 0.00 1015.6
20260830223932 0 198 0.9 1.7 0.00 0.00 0.00 1015.4
20260830223429 0 198 0.9 1.7 0.00 0.00 0.00 1015.7
20260830222928 0 221 0.0 1.7 0.00 0.00 0.00 1015.6
20260830222423 0 144 2.6 6.1 0.00 0.00 0.00 1015.5
20260830221919 0 165 1.7 2.6 0.00 0.00 0.00 1015.7
20260830221415 0 165 1.7 2.6 0.00 0.00 0.00 1015.5
20260830220911 0 165 1.7 2.6 0.00 0.00 0.00 1015.8
20260830220410 0 230 0.0 1.7 0.00 0.00 0.00 1015.9
20260830215908 0 217 0.9 1.7 0.00 0.00 0.00 1015.9
20260830215403 0 235 0.0 1.7 0.00 0.00 0.00 1015.8
20260830214857 0 225 0.0 2.6 0.00 0.00 0.00 1015.8
20260830214353 0 207 1.7 3.5 0.00 0.00 0.00 1016.0
20260830213847 0 230 1.7 2.6 0.00 0.00 0.00 1016.0
20260830213342 0 230 1.7 2.6 0.00 0.00 0.00 1016.0
20260830212838 0 171 2.6 5.2 0.00 0.00 0.00 1016.1
20260830212334 0 150 2.6 5.2 0.00 0.00 0.00 1016.3
20260830211833 0 271 2.6 4.3 0.00 0.00 0.00 1016.3
20260830211327 0 193 2.6 5.2 0.00 0.00 0.00 1016.5
20260830210823 0 193 2.6 5.2 0.00 0.00 0.00 1016.6
20260830210321 0 169 1.7 3.5 0.00 0.00 0.00 1016.7
20260830205820 0 153 1.7 2.6 0.00 0.00 0.00 1016.8
20260830205314 0 246 0.0 2.6 0.00 0.00 0.00 1016.9
20260830204809 0 246 0.0 2.6 0.00 0.00 0.00 1017.0
20260830204308 0 184 1.7 2.6 0.00 0.00 0.00 1017.1
20260830203804 0 224 1.7 3.5 0.00 0.00 0.00 1017.1
20260830203300 0 166 1.7 6.1 0.00 0.00 0.00 1017.1
20260830202759 0 149 2.6 5.2 0.00 0.00 0.00 1017.3
20260830202254 0 220 0.0 1.7 0.00 0.00 0.00 1017.3
20260830201749 0 218 2.6 2.6 0.00 0.00 0.00 1017.4
20260830201244 0 181 0.9 2.6 0.00 0.00 0.00 1017.5
20260830200739 0 181 0.9 2.6 0.00 0.00 0.00 1017.8
20260830200238 0 181 0.9 2.6 0.00 0.00 0.00 1017.6
20260830195734 0 220 2.6 2.6 0.00 0.00 0.00 1017.8
20260830195232 0 251 3.5 3.5 0.00 0.00 0.00 1017.8
20260830194731 0 159 1.7 4.3 0.00 0.00 0.00 1017.9
20260830194225 0 239 1.7 2.6 0.00 0.00 0.00 1018.0
20260830193720 0 239 1.7 2.6 0.00 0.00 0.00 1018.0
20260830193214 0 192 2.6 5.2 0.00 0.00 0.00 1018.1
20260830192710 0 181 0.0 4.3 0.00 0.00 0.00 1018.2
20260830192205 0 181 0.0 4.3 0.00 0.00 0.00 1018.3
20260830191701 0 127 1.7 2.6 0.00 0.00 0.00 1018.4
20260830191155 0 227 1.7 1.7 0.00 0.00 0.00 1018.6
20260830190651 0 242 0.9 3.5 0.00 0.00 0.00 1018.5
20260830190146 0 294 2.6 3.5 0.00 0.00 0.00 1018.4
20260830185644 0 227 0.0 5.2 0.00 0.00 0.00 1018.8
20260830185140 0 170 2.6 4.3 0.00 0.00 0.00 1018.8
20260830184639 0 235 0.9 2.6 0.00 0.00 0.00 1018.8
20260830184134 0 290 0.0 1.7 0.00 0.00 0.00 1018.8
20260830183634 0 279 2.6 3.5 0.00 0.00 0.00 1018.9
20260830183129 0 244 3.5 4.3 0.00 0.00 0.00 1019.1
20260830182624 0 244 3.5 4.3 0.00 0.00 0.00 1019.2
20260830182120 0 244 3.5 4.3 0.00 0.00 0.00 1019.3
20260830181616 0 240 0.9 2.6 0.00 0.00 0.00 1019.2
20260830181116 0 159 2.6 4.3 0.00 0.00 0.00 1019.3
20260830180615 0 260 1.7 2.6 0.00 0.00 0.00 1019.3
20260830180110 0 253 0.9 1.7 0.00 0.00 0.00 1019.5
20260830175608 0 201 1.7 2.6 0.00 0.00 0.00 1019.6
20260830175104 0 201 1.7 2.6 0.00 0.00 0.00 1019.9
20260830174559 0 271 1.7 3.5 0.00 0.00 0.00 1019.9
20260830174054 0 193 2.6 3.5 0.00 0.00 0.00 1020.0
20260830173549 0 193 2.6 3.5 0.00 0.00 0.00 1020.1
20260830173044 0 156 1.7 2.6 0.00 0.00 0.00 1020.1
20260830172542 0 156 1.7 2.6 0.00 0.00 0.00 1020.2
20260830172037 0 156 1.7 2.6 0.00 0.00 0.00 1020.2
20260830171533 0 183 1.7 4.3 0.00 0.00 0.00 1020.5
20260830171032 0 183 1.7 4.3 0.00 0.00 0.00 1020.5
20260830170527 0 298 0.9 1.7 0.00 0.00 0.00 1020.4
20260830170026 0 298 0.9 1.7 0.00 0.00 0.00 1020.4
20260830165521 0 209 2.6 4.3 0.00 0.00 0.00 1043.5
20260830165017 0 209 2.6 4.3 0.00 0.00 0.00 1020.4
20260830164513 0 209 2.6 4.3 0.00 0.00 0.00 1020.6
20260830164009 0 218 1.7 4.3 0.00 0.00 0.00 1020.8
20260830163506 0 218 1.7 4.3 0.00 0.00 0.00 1020.7
20260830163005 0 147 4.3 5.2 0.00 0.00 0.00 1020.6
20260830162501 0 147 4.3 5.2 0.00 0.00 0.00 1021.0
20260830162001 0 196 2.6 2.6 0.00 0.00 0.00 1020.9
20260830161455 0 196 2.6 2.6 0.00 0.00 0.00 1020.7
20260830160950 0 196 2.6 2.6 0.00 0.00 0.00 1020.7
20260830160447 0 218 1.7 1.7 0.00 0.00 0.00 1020.7
20260830155941 0 224 1.7 3.5 0.00 0.00 0.00 1020.6
20260830155438 0 224 1.7 3.5 0.00 0.00 0.00 1020.7
20260830154933 0 224 1.7 3.5 0.00 0.00 0.00 1020.7
20260830154428 0 224 1.7 3.5 0.00 0.00 0.00 1020.7
20260830153925 0 224 1.7 3.5 0.00 0.00 0.00 1020.7
20260830153420 0 224 1.7 3.5 0.00 0.00 0.00 1020.5
20260830152919 0 286 1.7 2.6 0.00 0.00 0.00 1020.7
20260830152414 0 224 1.7 1.7 0.00 0.00 0.00 1020.7
20260830151908 0 204 0.0 3.5 0.00 0.00 0.00 1020.6
20260830151408 0 153 2.6 6.1 0.00 0.00 0.00 1020.7
20260830150903 0 217 0.9 2.6 0.00 0.00 0.00 1020.7
20260830150403 0 226 1.7 2.6 0.00 0.00 0.00 1020.5
20260830145856 0 259 0.0 1.7 0.00 0.00 0.00 1020.6
20260830145352 0 233 1.7 2.6 0.00 0.00 0.00 1020.7
20260830144847 0 220 1.7 2.6 0.00 0.00 0.00 1020.5
20260830144343 0 178 0.9 2.6 0.00 0.00 0.00 1020.4
20260830143838 0 208 0.0 2.6 0.00 0.00 0.00 1020.5
20260830143338 0 248 4.3 5.2 0.00 0.00 0.00 1020.7
20260830142832 0 210 1.7 4.3 0.00 0.00 0.00 1020.6
20260830142327 0 226 0.9 3.5 0.00 0.00 0.00 1020.6
20260830141822 0 180 1.7 2.6 0.00 0.00 0.00 1020.6
20260830141317 0 201 1.7 1.7 0.00 0.00 0.00 1020.6
20260830140812 0 280 0.9 2.6 0.00 0.00 0.00 1020.6
20260830140307 0 228 0.9 2.6 0.00 0.00 0.00 1020.6
20260830135801 0 201 0.9 1.7 0.00 0.00 0.00 1020.5
20260830135257 0 217 1.7 2.6 0.00 0.00 0.00 1020.5
20260830134753 0 245 2.6 4.3 0.00 0.00 0.00 1020.4
20260830134252 0 238 1.7 3.5 0.00 0.00 0.00 1020.5
20260830133748 0 213 0.9 1.7 0.00 0.00 0.00 1020.4
20260830133244 0 213 0.9 2.6 0.00 0.00 0.00 1020.4
20260830132739 0 246 1.7 2.6 0.00 0.00 0.00 1020.4
20260830132235 0 161 0.9 1.7 0.00 0.00 0.00 1020.4
20260830131734 0 208 1.7 2.6 0.00 0.00 0.00 1020.3
20260830131229 0 236 0.9 0.9 0.00 0.00 0.00 1020.2
20260830130724 0 232 0.0 2.6 0.00 0.00 0.00 1020.2
20260830130224 0 212 0.0 2.6 0.00 0.00 0.00 1020.3
20260830125718 0 157 0.0 0.0 0.00 0.00 0.00 1020.1
20260830125213 0 62 0.0 0.0 0.00 0.00 0.00 1020.2
20260830124711 0 174 0.0 0.0 0.00 0.00 0.00 1020.0
20260830124206 0 141 0.0 0.9 0.00 0.00 0.00 1020.0
20260830123703 0 117 0.0 0.0 0.00 0.00 0.00 1020.0
20260830123159 0 62 0.0 0.0 0.00 0.00 0.00 1020.2
20260830122656 0 62 0.0 0.0 0.00 0.00 0.00 1019.9
20260830122151 0 62 0.0 0.0 0.00 0.00 0.00 1019.9
20260830121647 0 62 0.0 0.0 0.00 0.00 0.00 1019.8
20260830121146 0 235 0.0 0.0 0.00 0.00 0.00 1019.9
20260830120641 0 235 0.0 0.0 0.00 0.00 0.00 1019.8
20260830120138 0 217 0.0 0.9 0.00 0.00 0.00 1019.7